Voltar ao catálogo

HIMAWARI 4

GMS 4

AtivoMeteoGEO
NORAD 20217·PAYLOAD·🇯🇵 Japan

Lançado Sep 5, 1989 de Tanegashima Space Center

Loading…

TLE

AtualizadoSource: Space-Track

Época: Sep 13, 2026, 01:40 UTC

1 20217U 89070A   26256.06978987 -.00000154  00000-0  00000-0 0  9992
2 20217  14.7526 346.2126 0045020 150.4396 197.4828  0.97412278133390

Acompanhe HIMAWARI 4 em tempo real com AllMySat

Download on the App Store